K0VXP-1 Weather Reports


Display with metric or nautical units.
time (UTC)temp
F
wind
direction
speed
MPH
gust
MPH
rain 1hr
in
rain 24hr
in
rain mn
in
humidity
%
barometer
mb
20260831111539 45 0 0.0 0.0 0.00 0.62 0.01 95 1028.5
20260831110036 45 0 0.0 0.0 0.00 0.62 0.01 95 1028.5
20260831104537 45 0 0.0 0.0 0.00 0.62 0.01 95 1028.5
20260831103033 45 0 0.0 0.0 0.00 0.62 0.01 95 1028.7
20260831101537 45 0 0.0 0.0 0.00 0.62 0.01 95 1028.7
20260831100050 45 0 0.0 0.0 0.00 0.62 0.01 95 1028.6
20260831094540 45 0 0.0 0.0 0.00 0.62 0.01 95 1028.6
20260831093037 46 0 0.0 0.0 0.01 0.62 0.01 94 1028.7
20260831091536 45 0 0.0 0.0 0.01 0.62 0.01 94 1028.6
20260831090034 45 0 0.0 3.0 0.01 0.62 0.01 94 1028.5
20260831084540 45 0 0.0 2.0 0.01 0.62 0.01 94 1028.7
20260831083043 45 70 1.0 4.0 0.00 0.61 0.00 94 1028.8
20260831081537 45 0 0.0 2.0 0.00 0.61 0.00 94 1028.8
20260831080052 45 50 3.0 5.0 0.00 0.61 0.00 94 1029.0
20260831074536 45 63 3.0 6.0 0.00 0.61 0.00 94 1029.0
20260831073039 45 55 3.0 8.0 0.00 0.61 0.00 94 1029.1
20260831071535 46 40 3.0 5.0 0.00 0.61 0.00 94 1029.2
20260831070039 45 28 3.0 5.0 0.00 0.61 0.00 94 1029.3
20260831064535 45 14 3.0 6.0 0.00 0.61 0.00 94 1029.1
20260831063035 45 0 0.0 4.0 0.00 0.61 0.00 94 1029.4
20260831061536 46 0 0.0 0.0 0.00 0.61 0.00 94 1029.3
20260831060038 46 0 0.0 0.0 0.00 0.61 0.00 94 1029.6
20260831054538 47 0 0.0 0.0 0.00 0.61 0.61 94 1029.9
20260831053037 47 0 0.0 0.0 0.00 0.61 0.61 93 1029.8
20260831051541 47 0 0.0 0.0 0.00 0.61 0.61 93 1029.9
20260831050035 47 0 0.0 0.0 0.00 0.61 0.61 93 1029.8
20260831044545 48 0 0.0 0.0 0.00 0.61 0.61 93 1030.1
20260831043037 48 0 0.0 0.0 0.00 0.61 0.61 93 1030.3
20260831041546 48 0 0.0 0.0 0.02 0.61 0.61 93 1030.4
20260831040038 49 0 0.0 0.0 0.07 0.61 0.61 93 1030.7
20260831034643 49 0 0.0 6.0 0.13 0.61 0.61 93 1030.7
20260831034538 49 0 0.0 6.0 0.13 0.61 0.61 93 1030.7
20260831033037 49 175 3.0 6.0 0.20 0.61 0.61 92 1030.7
20260831031538 49 0 0.0 9.0 0.24 0.58 0.58 92 1030.5
20260831030038 49 53 9.0 25.0 0.24 0.54 0.54 91 1030.0
20260831024535 49 24 3.0 7.0 0.22 0.48 0.48 90 1030.6
20260831023038 50 239 5.0 19.0 0.15 0.40 0.40 88 1031.2
20260831021539 53 244 15.0 22.0 0.09 0.34 0.34 87 1031.0
20260831020038 54 0 0.0 4.0 0.05 0.30 0.30 85 1029.3
20260831014551 55 303 2.0 4.0 0.01 0.26 0.26 80 1028.4
20260831013042 55 0 0.0 4.0 0.00 0.25 0.25 78 1028.0
20260831011536 55 118 6.0 7.0 0.00 0.25 0.25 84 1027.7
20260831010039 55 0 0.0 6.0 0.00 0.25 0.25 85 1027.9
20260831004539 55 111 4.0 7.0 0.00 0.25 0.25 81 1028.0
20260831003047 0 0.0 0.0 0.00 0.25 0.25 1028.4
20260831001548 0 0.0 0.0 0.00 0.25 0.25 1028.3
20260831000045 0 0.0 0.0 0.00 0.25 0.25 1028.3
20260830234536 0 0.0 0.0 0.00 0.25 0.25 1028.1
20260830233038 0 0.0 0.0 0.00 0.25 0.25 1028.3
20260830231536 0 0.0 0.0 0.00 0.25 0.25 1028.5
20260830230038 0 0.0 0.0 0.00 0.25 0.25 1028.4
20260830224548 58 156 10.0 14.0 0.00 0.25 0.25 75 1028.4
20260830223035 0 0.0 0.0 0.00 0.25 0.25 1028.6
20260830221536 58 150 10.0 13.0 0.00 0.25 0.25 79 1028.8
20260830220050 57 132 9.0 17.0 0.00 0.25 0.25 79 1028.9
20260830214543 0 6.0 0.0 0.00 0.25 0.25 1029.2
20260830213036 55 6.0 8.0 0.00 0.25 0.25 89 1029.4
20260830211538 55 6.0 9.0 0.00 0.25 0.25 89 1029.7
20260830210037 54 7.0 8.0 0.00 0.25 0.25 89 1030.0
20260830204539 54 156 3.0 7.0 0.00 0.25 0.25 89 1030.0
20260830203038 54 138 1.0 7.0 0.01 0.25 0.25 89 1030.2
20260830201534 54 122 3.0 7.0 0.08 0.25 0.25 91 1029.9
20260830200038 53 139 4.0 7.0 0.15 0.25 0.25 91 1030.4
20260830194540 52 1.0 3.0 0.20 0.25 0.25 90 1030.2
20260830193035 52 317 1.0 3.0 0.24 0.24 0.24 90 1030.4
20260830191534 50 3.0 6.0 0.17 0.17 0.17 88 1030.5
20260830190036 50 15 3.0 10.0 0.10 0.10 0.10 87 1030.0
20260830184535 50 304 6.0 14.0 0.05 0.06 0.05 85 1029.4
20260830183037 0 0.0 0.0 0.00 0.01 0.00 1028.2
20260830181536 58 307 17.0 26.0 0.00 0.01 0.00 67 1028.1
20260830180047 72 297 16.0 28.0 0.00 0.01 0.00 55 1027.2
20260830174536 72 166 6.0 11.0 0.00 0.01 0.00 50 1026.2
20260830173041 70 217 5.0 8.0 0.00 0.01 0.00 53 1027.0
20260830171536 69 205 4.0 10.0 0.00 0.01 0.00 54 1027.3
20260830170037 70 194 4.0 8.0 0.00 0.01 0.00 56 1027.3
20260830164554 66 226 4.0 8.0 0.00 0.01 0.00 61 1027.3
20260830163035 0 0.0 0.0 0.00 0.01 0.00 1027.3
20260830161534 0 0.0 0.0 0.00 0.01 0.00 1027.3
20260830160039 0 0.0 0.0 0.00 0.01 0.00 1027.5
20260830154533 0 0.0 0.0 0.00 0.01 0.00 1027.6
20260830153035 0 0.0 0.0 0.00 0.01 0.00 1027.5
20260830151540 0 0.0 0.0 0.00 0.01 0.00 1027.7
20260830150036 57 4.0 2.0 0.00 0.01 0.00 81 1027.7
20260830144538 57 207 3.0 6.0 0.00 0.01 0.00 82 1027.8
20260830143039 56 360 1.0 2.0 0.00 0.01 0.00 87 1027.9
20260830141540 0 50 3.0 4.0 0.00 0.01 0.00 1027.7
20260830140046 52 5.0 7.0 0.00 0.01 0.00 89 1028.1
20260830134541 51 90 4.0 11.0 0.00 0.01 0.00 89 1028.0
20260830133034 51 69 6.0 12.0 0.00 0.01 0.00 89 1028.2
20260830131535 50 84 4.0 6.0 0.00 0.01 0.00 88 1028.5
20260830130056 50 46 4.0 5.0 0.00 0.01 0.00 86 1028.2
20260830124536 51 348 3.0 9.0 0.00 0.01 0.00 86 1028.0
20260830123034 0 0.0 0.0 0.00 0.01 0.00 1027.6
20260830121536 0 0.0 0.0 0.00 0.01 0.00 1027.0
20260830120035 0 0.0 0.0 0.00 0.01 0.00 1026.8
20260830114541 50 49 4.0 7.0 0.00 0.01 0.00 86 1026.6
20260830113035 50 39 4.0 8.0 0.00 0.01 0.00 87 1026.6